When you browse on this site, cookies collect data to enhance your experience and personalize the content and advertising you see.
Visit our Privacy Policy to learn more. By continuing to use the site, you agree to this use of cookies and data.

Hourly Weather Aleksino

Today, 13 July, Monday

Time Temperature Precipitation Wind Pressure Humidity
00:00 +21°C° 0 mm 2 mps 745 mmHg 91%
01:00 +21°C° 0 mm 2 mps 745 mmHg 92%
02:00 +21°C° 0 mm 2 mps 744 mmHg 94%
03:00 +21°C° 0 mm 1 mps 744 mmHg 93%
04:00 +22°C° 0 mm 1 mps 744 mmHg 91%
05:00 +23°C° 0 mm 1 mps 744 mmHg 90%
06:00 +23°C° 0 mm 2 mps 744 mmHg 89%
07:00 +25°C° 0 mm 2 mps 744 mmHg 84%
08:00 +26°C° 0 mm 3 mps 743 mmHg 79%
09:00 +28°C° 0 mm 3 mps 743 mmHg 73%
10:00 +30°C° 0 mm 3 mps 743 mmHg 67%
11:00 +31°C° 0 mm 3 mps 743 mmHg 61%
12:00 +33°C° 0 mm 3 mps 743 mmHg 55%
13:00 +33°C° 0 mm 4 mps 743 mmHg 55%
14:00 +33°C° 0 mm 4 mps 743 mmHg 55%
15:00 +33°C° 0 mm 5 mps 743 mmHg 54%
16:00 +30°C° 0.1 mm 5 mps 742 mmHg 59%
17:00 +27°C° 0.1 mm 6 mps 742 mmHg 64%
18:00 +24°C° 0.1 mm 7 mps 742 mmHg 69%
19:00 +25°C° 0 mm 5 mps 742 mmHg 66%
20:00 +24°C° 0 mm 3 mps 742 mmHg 63%
21:00 +24°C° 0 mm 1 mps 742 mmHg 60%
22:00 +23°C° 0.2 mm 2 mps 741 mmHg 63%
23:00 +23°C° 0.2 mm 2 mps 741 mmHg 66%

Tomorrow, 14 July, Tuesday

Time Temperature Precipitation Wind Pressure Humidity
00:00 +21°C° 0.2 mm 3 mps 741 mmHg 69%
01:00 +21°C° 0 mm 4 mps 740 mmHg 70%
02:00 +20°C° 0 mm 4 mps 740 mmHg 72%
03:00 +20°C° 0 mm 5 mps 740 mmHg 74%
04:00 +20°C° 0 mm 5 mps 739 mmHg 72%
05:00 +21°C° 0 mm 4 mps 739 mmHg 71%
06:00 +21°C° 0 mm 4 mps 739 mmHg 69%
07:00 +23°C° 0 mm 4 mps 739 mmHg 64%
08:00 +26°C° 0 mm 5 mps 739 mmHg 59%
09:00 +29°C° 0 mm 5 mps 739 mmHg 54%
10:00 +30°C° 0 mm 6 mps 739 mmHg 51%
11:00 +32°C° 0 mm 6 mps 739 mmHg 49%
12:00 +34°C° 0 mm 7 mps 739 mmHg 46%
13:00 +30°C° 0 mm 7 mps 740 mmHg 54%
14:00 +28°C° 0 mm 7 mps 740 mmHg 63%
15:00 +26°C° 0 mm 7 mps 740 mmHg 71%
16:00 +24°C° 0 mm 6 mps 740 mmHg 74%
17:00 +24°C° 0 mm 6 mps 741 mmHg 77%
18:00 +23°C° 0 mm 5 mps 741 mmHg 80%
19:00 +22°C° 0.1 mm 5 mps 741 mmHg 83%
20:00 +22°C° 0.1 mm 4 mps 741 mmHg 85%
21:00 +22°C° 0.1 mm 4 mps 741 mmHg 88%
22:00 +21°C° 0 mm 4 mps 741 mmHg 88%
23:00 +21°C° 0 mm 4 mps 741 mmHg 89%

Day after tomorrow, 15 July, Wednesday

Time Temperature Precipitation Wind Pressure Humidity
00:00 +21°C° 0 mm 4 mps 741 mmHg 89%
01:00 +20°C° 0 mm 4 mps 741 mmHg 91%
02:00 +19°C° 0 mm 3 mps 742 mmHg 93%
03:00 +18°C° 0 mm 3 mps 742 mmHg 96%
04:00 +19°C° 0 mm 3 mps 742 mmHg 93%
05:00 +19°C° 0 mm 4 mps 742 mmHg 90%
06:00 +19°C° 0 mm 4 mps 742 mmHg 87%
07:00 +20°C° 0.1 mm 5 mps 742 mmHg 80%
08:00 +21°C° 0.1 mm 6 mps 743 mmHg 72%
09:00 +22°C° 0.1 mm 7 mps 743 mmHg 64%
10:00 +22°C° 0 mm 7 mps 743 mmHg 64%
11:00 +22°C° 0 mm 8 mps 743 mmHg 63%
12:00 +22°C° 0 mm 8 mps 743 mmHg 63%
13:00 +22°C° 0 mm 8 mps 743 mmHg 64%
14:00 +22°C° 0 mm 8 mps 744 mmHg 65%
15:00 +21°C° 0 mm 7 mps 744 mmHg 66%
16:00 +21°C° 0 mm 7 mps 744 mmHg 65%
17:00 +21°C° 0 mm 6 mps 745 mmHg 64%
18:00 +21°C° 0 mm 5 mps 745 mmHg 64%
19:00 +19°C° 0 mm 4 mps 745 mmHg 69%
20:00 +18°C° 0 mm 4 mps 745 mmHg 75%
21:00 +16°C° 0 mm 3 mps 745 mmHg 81%
22:00 +16°C° 0 mm 3 mps 745 mmHg 83%
23:00 +15°C° 0 mm 4 mps 745 mmHg 86%

16 July, Thursday

Time Temperature Precipitation Wind Pressure Humidity
00:00 +14°C° 0 mm 4 mps 745 mmHg 89%
01:00 +14°C° 0 mm 4 mps 745 mmHg 89%
02:00 +13°C° 0 mm 4 mps 745 mmHg 90%
03:00 +13°C° 0 mm 4 mps 745 mmHg 91%
04:00 +13°C° 0 mm 4 mps 745 mmHg 89%
05:00 +14°C° 0 mm 4 mps 745 mmHg 86%
06:00 +14°C° 0 mm 5 mps 745 mmHg 83%
07:00 +15°C° 0 mm 5 mps 745 mmHg 77%
08:00 +16°C° 0 mm 6 mps 745 mmHg 72%
09:00 +19°C° 0 mm 6 mps 745 mmHg 66%
10:00 +19°C° 0 mm 6 mps 745 mmHg 62%
11:00 +20°C° 0 mm 7 mps 745 mmHg 59%
12:00 +21°C° 0 mm 7 mps 745 mmHg 56%
13:00 +21°C° 0 mm 6 mps 745 mmHg 56%
14:00 +22°C° 0 mm 6 mps 745 mmHg 56%
15:00 +22°C° 0 mm 6 mps 745 mmHg 56%
16:00 +21°C° 0 mm 5 mps 745 mmHg 60%
17:00 +20°C° 0 mm 5 mps 745 mmHg 64%
18:00 +20°C° 0 mm 4 mps 745 mmHg 69%
19:00 +18°C° 0 mm 3 mps 745 mmHg 75%
20:00 +16°C° 0 mm 3 mps 745 mmHg 81%
21:00 +15°C° 0 mm 2 mps 745 mmHg 87%
22:00 +15°C° 0 mm 2 mps 745 mmHg 86%
23:00 +15°C° 0 mm 2 mps 745 mmHg 85%

17 July, Friday

Time Temperature Precipitation Wind Pressure Humidity
00:00 +15°C° 0 mm 2 mps 745 mmHg 84%
01:00 +14°C° 0 mm 2 mps 745 mmHg 87%
02:00 +14°C° 0 mm 2 mps 745 mmHg 90%
03:00 +13°C° 0 mm 2 mps 745 mmHg 93%
04:00 +14°C° 0 mm 2 mps 745 mmHg 91%
05:00 +14°C° 0 mm 2 mps 745 mmHg 90%
06:00 +15°C° 0 mm 2 mps 745 mmHg 89%
07:00 +17°C° 0 mm 3 mps 745 mmHg 83%
08:00 +18°C° 0 mm 3 mps 745 mmHg 77%
09:00 +20°C° 0 mm 3 mps 745 mmHg 70%
10:00 +21°C° 0 mm 3 mps 745 mmHg 68%
11:00 +21°C° 0 mm 3 mps 745 mmHg 66%
12:00 +22°C° 0 mm 4 mps 746 mmHg 63%
13:00 +23°C° 0.1 mm 4 mps 745 mmHg 61%
14:00 +25°C° 0.1 mm 4 mps 745 mmHg 58%
15:00 +25°C° 0.1 mm 4 mps 745 mmHg 56%
16:00 +24°C° 0.2 mm 3 mps 745 mmHg 62%
17:00 +22°C° 0.2 mm 3 mps 745 mmHg 68%
18:00 +21°C° 0.2 mm 3 mps 745 mmHg 74%
19:00 +20°C° 0 mm 3 mps 745 mmHg 78%
20:00 +19°C° 0 mm 2 mps 745 mmHg 82%
21:00 +17°C° 0 mm 2 mps 746 mmHg 86%
22:00 +17°C° 0 mm 2 mps 746 mmHg 87%
23:00 +16°C° 0 mm 2 mps 746 mmHg 87%

18 July, Saturday

Time Temperature Precipitation Wind Pressure Humidity
00:00 +16°C° 0 mm 2 mps 746 mmHg 88%
01:00 +15°C° 0 mm 2 mps 746 mmHg 89%
02:00 +15°C° 0 mm 2 mps 746 mmHg 91%
03:00 +15°C° 0 mm 2 mps 746 mmHg 92%
04:00 +15°C° 0 mm 2 mps 746 mmHg 91%
05:00 +16°C° 0 mm 2 mps 746 mmHg 90%
06:00 +16°C° 0 mm 3 mps 747 mmHg 89%
07:00 +18°C° 0 mm 3 mps 747 mmHg 82%
08:00 +19°C° 0 mm 3 mps 747 mmHg 75%
09:00 +21°C° 0 mm 4 mps 747 mmHg 68%
10:00 +22°C° 0 mm 4 mps 747 mmHg 65%
11:00 +23°C° 0 mm 4 mps 747 mmHg 61%
12:00 +23°C° 0 mm 4 mps 747 mmHg 58%
13:00 +25°C° 0.1 mm 4 mps 747 mmHg 57%
14:00 +25°C° 0.1 mm 5 mps 747 mmHg 56%
15:00 +26°C° 0.1 mm 5 mps 747 mmHg 55%
16:00 +25°C° 0 mm 5 mps 747 mmHg 58%
17:00 +23°C° 0 mm 4 mps 747 mmHg 61%
18:00 +23°C° 0 mm 4 mps 746 mmHg 65%
19:00 +21°C° 0 mm 4 mps 746 mmHg 72%
20:00 +19°C° 0 mm 3 mps 747 mmHg 79%
21:00 +17°C° 0 mm 2 mps 747 mmHg 86%
22:00 +17°C° 0 mm 2 mps 746 mmHg 88%
23:00 +16°C° 0 mm 2 mps 746 mmHg 90%
Show more